DECAYED

VTM R/B, 60456 (Decayed)

Orbit data source: Space-Track

VTM R/B, 60456 was space debris in LEO originally from a launch on Fri, 16 Aug 2024 UTC launched from the Sirharikota (SRI). Debris objects in space refer to the collection of defunct objects orbiting the Earth. Examples of debris include non-operational satellites, rocket bodies, and fragments generated from explosions, collisions, or faulty payload assembly.

Not visible in the next 10 days
Identifier
60456, 2024-147C
Orbit
Decayed
Country
Flag of ININ / IND
Related business
Manufacturer
ISRO
Mission
Decayed spacecraft
Bus & Motor
VTM, Unknown motor
Mass
~200 kg wet, ~200 kg dry
Launch date (UTC)
2024-08-16 (1 year ago)
Launch vehicle
Unknown
Launch site
Sirharikota (SRI)
Object type
Payload
Rocket body
Debris
Shape & HBR
Cyl, 1.4 m
Radar Cross Section
5.969 m², Large (>1 m²)

Expand to show TLE details & history
Last TLE update: 8 months ago

TLE from 8 months ago
0 VTM R/B
1 60456U 24147C   25071.50043843  .06084490  37777-5  28269-3 0  9998
2 60456  36.9099 350.7329 0007244 321.0864 201.1212 16.43079029 32891
Epoch: 2025-03-12T12:00Z
TLE epoch observation values (Epoch: 2025-03-12T12:00:37.880Z)
Latitude
10.61156°
Longitude
165.82745°
Altitude
160.342 km
Speed
7.811 km/s
True Right ascension
10h 25m 29s
True Declination
10° 32' 38"
Sunlit
Object was in full shadow at epoch
Visualization orbit readout
Latitude
Unknown
Longitude
Unknown
Altitude
Unknown
Speed
Unknown
Apparent Right ascension
Unknown
Apparent Declination
Unknown
Sunlit
N/A
Visualization observer readout
Local Sidereal Time
01:14:36
Azimuth
Unknown
Elevation
Unknown
Doppler factor
Unknown
Orbital elements
Apogee altitude
165.459 km
Perigee altitude
155.986 km
Semi-major axis
6,538.86 km
Eccentricity
0.00072
Inclination
36.9099°
RAAN
350.7329°
Arg. of periapsis
321.0864°
True anomaly
201.09131°
Mean anomaly
201.1212°
Eccentric anomaly
201.10625°
Mean motion
4.10478 °/min
Orbital period
87.7 mins
BSTAR
0.00028269
Loading maneuver chart data...
Computing Atmospheric mass density...
Loading historical data...
Loading historical data...
Loading historical data...
Loading historical data...
Loading historical data...
Loading historical data...
Loading historical data...
Other satellites on launch #147 in the year 2024 (2024-08-16 UTC)

Documentation

Showing up to 5 results
|